Regional Weather Roundup
Issued by NWS

Home | Current Version | Previous Version | Text Only | Print | Product List | Glossary On
Versions: 1 2 3 4 5 6 7 8 9 10 11 12 13 14 15 16 17 18 19 20 21 22 23 24 25 26 27 28 29 30 31 32 33 34 35 36 37 38 39 40 41 42 43 44 45 46 47 48 49 50
326
ASUS46 KSEW 062010
RWRWA

WASHINGTON REGIONAL WEATHER ROUNDUP
NATIONAL WEATHER SERVICE SEATTLE WA
1200 PM PST SAT FEB 06 2016

NOTE:"FAIR" INDICATES FEW OR NO CLOUDS BELOW 12,000 FEET WITH NO
SIGNIFICANT WEATHER AND/OR OBSTRUCTIONS TO VISIBILITY.

WAZ505-507>509-062100-
SEATTLE, TACOMA, EVERETT, AND VICINITY

CITY           SKY/WX    TMP DP  RH WIND       PRES   REMARKS
EVERETT        CLOUDY    44  38  79 CALM      30.47S
BOEING FIELD   CLOUDY    49  41  74 SW7       30.48S
RENTON         CLOUDY    51  40  65 VRB6      30.47F
SEATAC AIRPORT CLOUDY    47  39  74 SW12      30.47S
JBLM-MCCHORD   CLOUDY    47  46  97 SE2       30.47S
PUYALLUP       FAIR      48  41  76 CALM      30.48R
BREMERTON      CLOUDY    45  43  93 SW5       30.50F
JBLM-FT LEWIS  PTSUNNY   46  46  99 E2        30.47R
TACOMA NARROWS CLOUDY    46  41  82 S7        30.47S
$$

WAZ001-503-506-510-514-515-062100-
NORTH INTERIOR

CITY           SKY/WX    TMP DP  RH WIND       PRES   REMARKS
BELLINGHAM     CLOUDY    47  40  76 S10       30.46R
FRIDAY HARBOR  CLOUDY    47  39  74 S8        30.47S
EASTSOUND      CLOUDY    48  39  71 SW9       30.45R
PORT ANGELES   CLOUDY    46  39  76 SE3       30.46S
EDIZ HOOK      FAIR      45  39  81 CALM      30.47S
PORT TOWNSEND    N/A     43  43 100 CALM      30.48S
NAS WHIDBEY    CLOUDY    47  41  80 SE6       30.51S
ARLINGTON      CLOUDY    46  37  71 SE7       30.50S
BURLINGTON     CLOUDY    46  41  81 S6G12     30.48S
$$

WAZ020-022-039-040-504-511-512-062100-
SOUTHWEST INTERIOR

CITY           SKY/WX    TMP DP  RH WIND       PRES   REMARKS
SHELTON        CLOUDY    47  41  80 SW9       30.44S
OLYMPIA        CLOUDY    45  42  89 SW5       30.47F
CHEHALIS       FAIR      46  43  87 S6        30.47F
KELSO          CLOUDY    46  39  76 SE5       30.51F
VANCOUVER      PTSUNNY   49  43  80 CALM      30.49F
SCAPPOOSE, OR  CLOUDY    47  42  83 E3        30.49S
PORTLAND, OR   CLOUDY    49  43  80 N3        30.49F
$$

WAZ021-516-517-062100-
WASHINGTON COAST

CITY           SKY/WX    TMP DP  RH WIND       PRES   REMARKS
FORKS          CLOUDY    46  43  89 SE5       30.44S
HOQUIAM        CLOUDY    48  45  89 E5        30.47S
ASTORIA, OR    CLOUDY    50  44  80 E6        30.46F
$$

WAZ019-023-024-040-518-519-062100-
CASCADE MOUNTAINS AND COLUMBIA GORGE

CITY           SKY/WX    TMP DP  RH WIND       PRES   REMARKS
STAMPEDE PASS  NOT AVBL
TROUTDALE, OR  PTSUNNY   51  41  68 CALM      30.50F
THE DALLES, OR CLOUDY    53  36  52 N10       30.46S
$$

WAZ026-027-041>044-520-521-062100-
EAST SLOPES

CITY           SKY/WX    TMP DP  RH WIND       PRES   REMARKS
OMAK           CLOUDY    38  29  70 S5        30.37R
WENATCHEE      CLOUDY    40  31  70 CALM      30.39S
ELLENSBURG     CLOUDY    43  30  60 VRB3      30.40S
YAKIMA         CLOUDY    51  29  42 SE5       30.41F
$$

WAZ028-034-035-062100-
COLUMBIA BASIN

CITY           SKY/WX    TMP DP  RH WIND       PRES   REMARKS
EPHRATA        CLOUDY    45  32  60 VRB3      30.38R
MOSES LAKE     CLOUDY    45  31  58 SW13      30.40S
PASCO          CLOUDY    49  35  58 SW8       30.44F
HERMISTON, OR  CLOUDY    51  32  48 W10       30.44F
$$

WAZ036>038-062100-
NORTHEAST WASHINGTON

CITY           SKY/WX    TMP DP  RH WIND       PRES   REMARKS
SPOKANE GEIGER CLOUDY    37  30  75 SW16      30.34F
SPOKANE FELTS  CLOUDY    41  31  67 SW8       30.37S
FAIRCHILD AFB  CLOUDY    36  32  85 SW17      30.34F
COEURDALENE,ID CLOUDY    39  32  75 SW9       30.33S
DEER PARK      CLOUDY    36  30  79 S13       30.35S
$$

WAZ029>033-062100-
SOUTHEAST WASHINGTON

CITY           SKY/WX    TMP DP  RH WIND       PRES   REMARKS
PULLMAN        CLOUDY    41  31  67 SW15      30.40S
LEWISTON, ID   CLOUDY    51  28  41 CALM      30.39F
WALLA WALLA    CLOUDY    48  31  51 W10       30.44F
PENDLETON, OR  CLOUDY    48  29  47 W12       30.43F
$$




USA.gov is the U.S. government's official web portal to all federal, state and local government web resources and services.